Location: Newark
(30.1000°N, 109.4667°E)
Time: 17:34:27
(UTC+00:00)

Vanguard 2 Rocket - Pass Details

Date: 23 February 2020
Orbit: 554 x 3326 km, 32.9° (Epoch: 04 April)

Event Time Altitude Azimuth Distance (km) Brightness Sun altitude
Rises 10:42:17 0° 232° (SW) 7,171 12.7 -2.1°
Reaches altitude 10° 10:47:03 10° 229° (SW) 6,249 12.2 -3.1°
Maximum altitude 11:07:07 65° 153° (SSE) 3,211 9.6 -7.4°
Enters shadow 11:21:25 11° 76° (ENE) 4,691 9.9 -10.5°
